Location: Benevento
(41.1330°N, 14.7500°E)
Time: 05:48:45
(UTC+01:00)

ISS - Visible Passes

Search period start: 20 January 2019 00:00
Search period end: 30 January 2019 00:00
Orbit: 404 x 410 km, 51.6° (Epoch: 20 January)

Date Brightness Start Highest point End Pass type
(mag) Time Alt. Az. Time Alt. Az. Time Alt. Az.
20 Jan -0.6 19:34:40 10° SW 19:34:52 11° SW 19:34:52 11° SW visible
21 Jan -2.6 18:43:40 10° SSW 18:46:04 30° SSE 18:46:04 30° SSE visible
22 Jan -2.0 17:53:08 10° S 17:55:28 18° SE 17:57:11 13° E visible
22 Jan -1.3 19:28:30 10° WSW 19:29:55 23° W 19:29:55 23° W visible
23 Jan -3.9 18:37:02 10° SW 18:40:20 87° SE 18:40:56 57° ENE visible
24 Jan -3.3 17:45:50 10° SSW 17:48:59 44° SE 17:51:52 12° ENE visible
24 Jan -1.5 19:22:45 10° W 19:24:36 23° NW 19:24:36 23° NW visible
25 Jan -2.9 18:30:57 10° WSW 18:34:06 41° NNW 18:35:27 26° NNE visible
26 Jan -3.6 17:39:21 10° WSW 17:42:38 72° NW 17:45:56 10° NE visible
26 Jan -1.3 19:17:15 10° WNW 19:18:57 17° NNW 19:18:57 17° NNW visible
27 Jan -2.0 18:25:14 10° WNW 18:27:58 23° NNW 18:29:41 16° NNE visible
28 Jan -1.2 19:11:46 10° NW 19:13:05 14° NNW 19:13:05 14° NNW visible
29 Jan -1.5 18:19:43 10° NW 18:21:55 16° NNW 18:23:44 12° NNE visible
